TimeEST,TemperatureF,Dew PointF,Humidity,Sea Level PressureIn,VisibilityMPH,Wind Direction,Wind SpeedMPH,Gust SpeedMPH,PrecipitationIn,Events,Conditions,WindDirDegrees,DateUTC
12:52 AM,24.1,16.0,71,30.25,10.0,Calm,Calm,-,N/A,,Clear,0,2012-12-07 05:52:00
1:52 AM,24.1,16.0,71,30.25,10.0,ESE,6.9,-,N/A,,Clear,110,2012-12-07 06:52:00
2:52 AM,25.0,16.0,69,30.23,10.0,SSE,4.6,-,N/A,,Clear,150,2012-12-07 07:52:00
3:52 AM,26.1,16.0,66,30.20,10.0,East,6.9,-,N/A,,Clear,90,2012-12-07 08:52:00
4:52 AM,27.0,16.0,63,30.19,10.0,Calm,Calm,-,N/A,,Clear,0,2012-12-07 09:52:00
5:52 AM,28.0,16.0,61,30.19,10.0,ESE,4.6,-,N/A,,Clear,110,2012-12-07 10:52:00
6:52 AM,28.0,16.0,61,30.19,10.0,ESE,8.1,-,N/A,,Clear,110,2012-12-07 11:52:00
7:52 AM,28.9,17.1,61,30.18,10.0,ESE,3.5,-,N/A,,Partly Cloudy,120,2012-12-07 12:52:00
8:52 AM,32.0,19.0,59,30.19,10.0,Calm,Calm,-,N/A,,Clear,0,2012-12-07 13:52:00
9:52 AM,34.0,21.0,59,30.17,10.0,East,9.2,-,N/A,,Mostly Cloudy,100,2012-12-07 14:52:00
10:52 AM,36.0,23.0,59,30.15,10.0,ENE,4.6,-,N/A,,Overcast,70,2012-12-07 15:52:00
11:52 AM,39.0,24.1,55,30.12,10.0,NE,3.5,-,N/A,,Overcast,40,2012-12-07 16:52:00
12:52 PM,39.0,26.1,60,30.10,10.0,ESE,4.6,-,N/A,,Overcast,110,2012-12-07 17:52:00
1:52 PM,37.9,28.9,70,30.09,8.0,Calm,Calm,-,0.00,Rain,Light Rain,0,2012-12-07 18:52:00
2:09 PM,37.4,28.4,70,30.06,8.0,Calm,Calm,-,0.00,Rain,Light Rain,0,2012-12-07 19:09:00
2:52 PM,36.0,32.0,86,30.08,5.0,South,5.8,-,0.01,Rain,Light Rain,170,2012-12-07 19:52:00
3:52 PM,36.0,33.1,89,30.06,7.0,Variable,3.5,-,0.02,Rain,Light Rain,0,2012-12-07 20:52:00
4:52 PM,36.0,33.1,89,30.07,8.0,East,3.5,-,0.01,,Overcast,80,2012-12-07 21:52:00
5:52 PM,36.0,33.1,89,30.07,6.0,SE,4.6,-,0.02,,Overcast,130,2012-12-07 22:52:00
6:52 PM,36.0,34.0,93,30.07,8.0,East,4.6,-,N/A,,Overcast,100,2012-12-07 23:52:00
7:52 PM,37.0,33.1,86,30.06,8.0,East,3.5,-,N/A,,Overcast,80,2012-12-08 00:52:00
8:37 PM,37.4,35.6,93,30.04,4.0,Calm,Calm,-,0.00,,Overcast,0,2012-12-08 01:37:00
8:52 PM,37.0,34.0,89,30.06,4.0,SE,4.6,-,0.00,,Overcast,130,2012-12-08 01:52:00
9:17 PM,37.4,33.8,87,30.03,5.0,ESE,4.6,-,0.01,,Overcast,120,2012-12-08 02:17:00
9:52 PM,37.0,34.0,89,30.05,5.0,Calm,Calm,-,0.01,,Overcast,0,2012-12-08 02:52:00
10:29 PM,35.6,33.8,93,30.03,2.0,Calm,Calm,-,N/A,,Overcast,0,2012-12-08 03:29:00
10:45 PM,35.6,33.8,93,30.03,3.0,Calm,Calm,-,N/A,,Overcast,0,2012-12-08 03:45:00
10:52 PM,36.0,34.0,93,30.05,4.0,Calm,Calm,-,N/A,,Overcast,0,2012-12-08 03:52:00
11:52 PM,36.0,34.0,93,30.04,2.5,Calm,Calm,-,N/A,,Overcast,0,2012-12-08 04:52:00